Time,TemperatureF,DewpointF,PressureIn,WindDirection,WindDirectionDegrees,WindSpeedMPH,WindSpeedGustMPH,Humidity,HourlyPrecipIn,Conditions,Clouds,dailyrainin,SoftwareType,DateUTC
2013-01-14 00:01:00,24.3,18.1,29.90,North,349,0.0,0.0,77,0.00,,,0.00,VWS V14.00,2013-01-14 05:01:00,
2013-01-14 00:03:00,24.3,18.1,29.90,North,349,0.0,0.0,77,0.00,,,0.00,VWS V14.00,2013-01-14 05:03:00,
2013-01-14 00:04:00,24.3,18.1,29.90,North,349,0.0,0.0,77,0.00,,,0.00,VWS V14.00,2013-01-14 05:04:00,
2013-01-14 00:10:00,24.3,18.1,29.90,NNW,348,0.0,0.0,77,0.00,,,0.00,VWS V14.00,2013-01-14 05:10:00,
2013-01-14 00:14:00,24.3,18.1,29.90,NNW,348,0.0,0.0,77,0.00,,,0.00,VWS V14.00,2013-01-14 05:14:00,
2013-01-14 00:19:00,24.1,17.6,29.90,North,349,0.0,0.0,76,0.00,,,0.00,VWS V14.00,2013-01-14 05:19:00,
2013-01-14 00:25:00,23.9,17.5,29.90,North,349,0.0,0.0,76,0.00,,,0.00,VWS V14.00,2013-01-14 05:25:00,
2013-01-14 00:30:00,23.9,17.5,29.90,North,349,0.0,0.0,76,0.00,,,0.00,VWS V14.00,2013-01-14 05:30:00,
2013-01-14 00:36:00,23.9,17.5,29.90,NNW,348,0.0,0.0,76,0.00,,,0.00,VWS V14.00,2013-01-14 05:36:00,
2013-01-14 00:41:00,23.9,17.5,29.90,North,350,0.0,0.0,76,0.00,,,0.00,VWS V14.00,2013-01-14 05:41:00,
2013-01-14 00:46:00,23.7,17.3,29.90,North,350,0.0,0.0,76,0.00,,,0.00,VWS V14.00,2013-01-14 05:46:00,
2013-01-14 00:52:00,23.7,17.3,29.90,North,350,0.0,0.0,76,0.00,,,0.00,VWS V14.00,2013-01-14 05:52:00,
2013-01-14 00:57:00,23.5,17.4,29.90,North,350,0.0,0.0,77,0.00,,,0.00,VWS V14.00,2013-01-14 05:57:00,
2013-01-14 01:02:00,23.5,17.4,29.90,North,350,0.0,0.0,77,0.00,,,0.00,VWS V14.00,2013-01-14 06:02:00,
2013-01-14 01:07:00,23.5,17.4,29.90,North,350,0.0,0.0,77,0.00,,,0.00,VWS V14.00,2013-01-14 06:07:00,
2013-01-14 01:12:00,23.5,17.4,29.93,North,350,0.0,0.0,77,0.00,,,0.00,VWS V14.00,2013-01-14 06:12:00,
2013-01-14 01:18:00,23.5,17.4,29.93,NNW,348,0.0,0.0,77,0.00,,,0.00,VWS V14.00,2013-01-14 06:18:00,
2013-01-14 01:23:00,23.2,17.0,29.93,North,349,0.0,0.0,77,0.00,,,0.00,VWS V14.00,2013-01-14 06:23:00,
2013-01-14 01:29:00,23.0,17.2,29.93,North,350,0.0,0.0,78,0.00,,,0.00,VWS V14.00,2013-01-14 06:29:00,
2013-01-14 01:35:00,22.8,17.0,29.93,NNW,348,0.0,0.0,78,0.00,,,0.00,VWS V14.00,2013-01-14 06:35:00,
2013-01-14 01:41:00,22.6,16.8,29.93,North,349,0.0,0.0,78,0.00,,,0.00,VWS V14.00,2013-01-14 06:41:00,
2013-01-14 01:47:00,22.5,16.6,29.93,North,349,0.0,0.0,78,0.00,,,0.00,VWS V14.00,2013-01-14 06:47:00,
2013-01-14 01:52:00,22.5,16.6,29.93,North,349,0.0,0.0,78,0.00,,,0.00,VWS V14.00,2013-01-14 06:52:00,
2013-01-14 01:58:00,22.3,16.5,29.93,NNW,348,0.0,0.0,78,0.00,,,0.00,VWS V14.00,2013-01-14 06:58:00,
2013-01-14 02:03:00,22.1,16.0,29.93,North,350,0.0,0.0,77,0.00,,,0.00,VWS V14.00,2013-01-14 07:03:00,
2013-01-14 02:09:00,22.1,16.0,29.93,North,350,0.0,0.0,77,0.00,,,0.00,VWS V14.00,2013-01-14 07:09:00,
2013-01-14 02:14:00,21.9,15.8,29.96,North,350,0.0,0.0,77,0.00,,,0.00,VWS V14.00,2013-01-14 07:14:00,
2013-01-14 02:19:00,21.9,15.8,29.96,North,350,0.0,0.0,77,0.00,,,0.00,VWS V14.00,2013-01-14 07:19:00,
2013-01-14 02:24:00,21.7,15.6,29.96,North,350,0.0,0.0,77,0.00,,,0.00,VWS V14.00,2013-01-14 07:24:00,
2013-01-14 02:29:00,21.7,15.6,29.96,North,349,0.0,0.0,77,0.00,,,0.00,VWS V14.00,2013-01-14 07:29:00,
2013-01-14 02:35:00,21.7,15.6,29.96,North,350,0.0,0.0,77,0.00,,,0.00,VWS V14.00,2013-01-14 07:35:00,
2013-01-14 02:40:00,21.7,15.6,29.96,North,350,0.0,0.0,77,0.00,,,0.00,VWS V14.00,2013-01-14 07:40:00,
2013-01-14 02:46:00,21.7,15.9,29.96,NNW,348,0.0,0.0,78,0.00,,,0.00,VWS V14.00,2013-01-14 07:46:00,
2013-01-14 02:52:00,21.7,15.9,29.96,NNW,348,0.0,0.0,78,0.00,,,0.00,VWS V14.00,2013-01-14 07:52:00,
2013-01-14 02:57:00,21.7,15.6,29.96,North,350,0.0,0.0,77,0.00,,,0.00,VWS V14.00,2013-01-14 07:57:00,
2013-01-14 03:03:00,21.7,15.6,29.96,North,350,0.0,0.0,77,0.00,,,0.00,VWS V14.00,2013-01-14 08:03:00,
2013-01-14 03:08:00,21.6,15.5,29.96,North,350,0.0,0.0,77,0.00,,,0.00,VWS V14.00,2013-01-14 08:08:00,
2013-01-14 03:13:00,21.6,15.5,29.98,North,349,0.0,0.0,77,0.00,,,0.00,VWS V14.00,2013-01-14 08:13:00,
2013-01-14 03:18:00,21.6,15.5,29.98,NNW,348,0.0,0.0,77,0.00,,,0.00,VWS V14.00,2013-01-14 08:18:00,
2013-01-14 03:23:00,21.6,15.5,29.98,North,349,0.0,0.0,77,0.00,,,0.00,VWS V14.00,2013-01-14 08:23:00,
2013-01-14 03:28:00,21.6,15.5,29.98,North,350,0.0,0.0,77,0.00,,,0.00,VWS V14.00,2013-01-14 08:28:00,
2013-01-14 03:34:00,21.6,15.5,29.98,North,349,0.0,0.0,77,0.00,,,0.00,VWS V14.00,2013-01-14 08:34:00,
2013-01-14 03:39:00,21.6,15.5,29.98,NNW,348,0.0,0.0,77,0.00,,,0.00,VWS V14.00,2013-01-14 08:39:00,
2013-01-14 03:45:00,21.6,15.5,29.98,North,350,0.0,0.0,77,0.00,,,0.00,VWS V14.00,2013-01-14 08:45:00,
2013-01-14 03:50:00,21.4,15.3,29.98,North,349,0.0,0.0,77,0.00,,,0.00,VWS V14.00,2013-01-14 08:50:00,
2013-01-14 03:55:00,21.4,15.6,29.98,North,349,0.0,0.0,78,0.00,,,0.00,VWS V14.00,2013-01-14 08:55:00,
2013-01-14 04:01:00,21.2,15.4,30.01,North,349,0.0,0.0,78,0.00,,,0.00,VWS V14.00,2013-01-14 09:01:00,
2013-01-14 04:07:00,21.2,15.4,30.01,North,349,0.0,0.0,78,0.00,,,0.00,VWS V14.00,2013-01-14 09:07:00,
2013-01-14 04:13:00,21.2,15.4,30.01,North,349,0.0,0.0,78,0.00,,,0.00,VWS V14.00,2013-01-14 09:13:00,
2013-01-14 04:18:00,21.2,15.4,30.01,North,350,0.0,0.0,78,0.00,,,0.00,VWS V14.00,2013-01-14 09:18:00,
2013-01-14 04:23:00,21.2,15.4,30.01,NNW,348,0.0,0.0,78,0.00,,,0.00,VWS V14.00,2013-01-14 09:23:00,
2013-01-14 04:28:00,21.2,15.4,30.01,North,349,0.0,0.0,78,0.00,,,0.00,VWS V14.00,2013-01-14 09:28:00,
2013-01-14 04:34:00,21.2,15.7,30.01,NNW,348,0.0,0.0,79,0.00,,,0.00,VWS V14.00,2013-01-14 09:34:00,
2013-01-14 04:39:00,21.2,15.7,30.01,North,350,0.0,0.0,79,0.00,,,0.00,VWS V14.00,2013-01-14 09:39:00,
2013-01-14 04:45:00,21.2,15.7,30.01,North,350,0.0,0.0,79,0.00,,,0.00,VWS V14.00,2013-01-14 09:45:00,
2013-01-14 04:51:00,21.2,16.0,30.01,North,350,0.0,0.0,80,0.00,,,0.00,VWS V14.00,2013-01-14 09:51:00,
2013-01-14 04:56:00,21.0,15.8,30.04,NNW,348,0.0,0.0,80,0.00,,,0.00,VWS V14.00,2013-01-14 09:56:00,
2013-01-14 05:01:00,21.0,15.8,30.04,North,350,0.0,0.0,80,0.00,,,0.00,VWS V14.00,2013-01-14 10:01:00,
2013-01-14 05:06:00,21.0,15.8,30.04,NNW,348,0.0,0.0,80,0.00,,,0.00,VWS V14.00,2013-01-14 10:06:00,
2013-01-14 05:11:00,21.0,16.1,30.04,NNW,348,0.0,0.0,81,0.00,,,0.00,VWS V14.00,2013-01-14 10:11:00,
2013-01-14 05:17:00,20.8,15.9,30.04,North,350,0.0,0.0,81,0.00,,,0.00,VWS V14.00,2013-01-14 10:17:00,
2013-01-14 05:23:00,20.8,15.9,30.04,North,349,0.0,0.0,81,0.00,,,0.00,VWS V14.00,2013-01-14 10:23:00,
2013-01-14 05:28:00,20.8,15.9,30.04,NNW,348,0.0,0.0,81,0.00,,,0.00,VWS V14.00,2013-01-14 10:28:00,
2013-01-14 05:33:00,20.8,15.9,30.04,North,350,0.0,0.0,81,0.00,,,0.00,VWS V14.00,2013-01-14 10:33:00,
2013-01-14 05:38:00,20.8,15.9,30.04,North,350,0.0,0.0,81,0.00,,,0.00,VWS V14.00,2013-01-14 10:38:00,
2013-01-14 05:44:00,20.7,15.5,30.04,North,350,0.0,0.0,80,0.00,,,0.00,VWS V14.00,2013-01-14 10:44:00,
2013-01-14 05:49:00,20.7,15.5,30.04,North,350,0.0,0.0,80,0.00,,,0.00,VWS V14.00,2013-01-14 10:49:00,
2013-01-14 05:54:00,20.7,15.5,30.04,North,350,0.0,0.0,80,0.00,,,0.00,VWS V14.00,2013-01-14 10:54:00,
2013-01-14 05:59:00,20.7,15.5,30.04,North,349,0.0,0.0,80,0.00,,,0.00,VWS V14.00,2013-01-14 10:59:00,
2013-01-14 06:04:00,20.8,15.7,30.04,North,350,0.0,0.0,80,0.00,,,0.00,VWS V14.00,2013-01-14 11:04:00,
2013-01-14 06:09:00,20.8,15.7,30.04,North,350,0.0,0.0,80,0.00,,,0.00,VWS V14.00,2013-01-14 11:09:00,
2013-01-14 06:15:00,20.8,15.7,30.04,North,350,0.0,0.0,80,0.00,,,0.00,VWS V14.00,2013-01-14 11:15:00,
2013-01-14 06:20:00,20.8,15.7,30.04,NNW,348,0.0,0.0,80,0.00,,,0.00,VWS V14.00,2013-01-14 11:20:00,
2013-01-14 06:26:00,20.8,15.7,30.04,North,350,0.0,0.0,80,0.00,,,0.00,VWS V14.00,2013-01-14 11:26:00,
2013-01-14 06:31:00,20.8,15.7,30.07,North,349,0.0,0.0,80,0.00,,,0.00,VWS V14.00,2013-01-14 11:31:00,
2013-01-14 06:37:00,20.8,15.9,30.07,North,349,0.0,0.0,81,0.00,,,0.00,VWS V14.00,2013-01-14 11:37:00,
2013-01-14 06:43:00,20.8,15.9,30.07,NNW,348,0.0,0.0,81,0.00,,,0.00,VWS V14.00,2013-01-14 11:43:00,
2013-01-14 06:48:00,20.8,15.9,30.07,NNW,348,0.0,0.0,81,0.00,,,0.00,VWS V14.00,2013-01-14 11:48:00,
2013-01-14 06:53:00,21.0,16.1,30.07,North,349,0.0,0.0,81,0.00,,,0.00,VWS V14.00,2013-01-14 11:53:00,
2013-01-14 06:59:00,21.0,16.1,30.07,North,350,0.0,0.0,81,0.00,,,0.00,VWS V14.00,2013-01-14 11:59:00,
2013-01-14 07:04:00,21.0,16.1,30.07,North,349,0.0,0.0,81,0.00,,,0.00,VWS V14.00,2013-01-14 12:04:00,
2013-01-14 07:09:00,21.0,16.1,30.07,North,350,0.0,0.0,81,0.00,,,0.00,VWS V14.00,2013-01-14 12:09:00,
2013-01-14 07:15:00,21.0,16.1,30.07,NNW,348,0.0,0.0,81,0.00,,,0.00,VWS V14.00,2013-01-14 12:15:00,
2013-01-14 07:20:00,21.0,16.1,30.07,North,349,0.0,0.0,81,0.00,,,0.00,VWS V14.00,2013-01-14 12:20:00,
2013-01-14 07:26:00,21.2,16.3,30.10,North,350,0.0,0.0,81,0.00,,,0.00,VWS V14.00,2013-01-14 12:26:00,
2013-01-14 07:31:00,21.2,16.3,30.10,North,349,0.0,0.0,81,0.00,,,0.00,VWS V14.00,2013-01-14 12:31:00,
2013-01-14 07:36:00,21.2,16.6,30.10,North,350,0.0,0.0,82,0.00,,,0.00,VWS V14.00,2013-01-14 12:36:00,
2013-01-14 07:41:00,21.2,16.6,30.10,NNW,348,0.0,0.0,82,0.00,,,0.00,VWS V14.00,2013-01-14 12:41:00,
2013-01-14 07:46:00,21.2,16.6,30.10,North,349,0.0,0.0,82,0.00,,,0.00,VWS V14.00,2013-01-14 12:46:00,
2013-01-14 07:51:00,21.2,16.6,30.10,North,349,0.0,0.0,82,0.00,,,0.00,VWS V14.00,2013-01-14 12:51:00,
2013-01-14 07:57:00,21.2,16.6,30.10,NNW,348,0.0,0.0,82,0.00,,,0.00,VWS V14.00,2013-01-14 12:57:00,
2013-01-14 08:02:00,21.2,16.6,30.10,North,350,0.0,0.0,82,0.00,,,0.00,VWS V14.00,2013-01-14 13:02:00,
2013-01-14 08:07:00,21.2,16.6,30.10,North,350,0.0,0.0,82,0.00,,,0.00,VWS V14.00,2013-01-14 13:07:00,
2013-01-14 08:13:00,21.2,16.6,30.10,North,350,0.0,0.0,82,0.00,,,0.00,VWS V14.00,2013-01-14 13:13:00,
2013-01-14 08:18:00,21.2,16.6,30.10,NNW,348,0.0,0.0,82,0.00,,,0.00,VWS V14.00,2013-01-14 13:18:00,
2013-01-14 08:23:00,21.2,16.6,30.10,North,349,0.0,0.0,82,0.00,,,0.00,VWS V14.00,2013-01-14 13:23:00,
2013-01-14 08:28:00,21.2,16.3,30.13,NNW,348,0.0,0.0,81,0.00,,,0.00,VWS V14.00,2013-01-14 13:28:00,
2013-01-14 08:34:00,21.2,16.3,30.13,North,349,0.0,0.0,81,0.00,,,0.00,VWS V14.00,2013-01-14 13:34:00,
2013-01-14 08:40:00,21.2,16.3,30.13,North,349,0.0,0.0,81,0.00,,,0.00,VWS V14.00,2013-01-14 13:40:00,
2013-01-14 08:46:00,21.4,16.2,30.13,North,350,0.0,0.0,80,0.00,,,0.00,VWS V14.00,2013-01-14 13:46:00,
2013-01-14 08:51:00,21.4,15.9,30.13,NNW,348,0.0,0.0,79,0.00,,,0.00,VWS V14.00,2013-01-14 13:51:00,
2013-01-14 08:57:00,21.4,15.9,30.13,NNW,348,0.0,0.0,79,0.00,,,0.00,VWS V14.00,2013-01-14 13:57:00,
2013-01-14 09:02:00,21.6,16.1,30.13,North,350,0.0,0.0,79,0.00,,,0.00,VWS V14.00,2013-01-14 14:02:00,
2013-01-14 09:07:00,21.6,15.8,30.13,NNW,348,0.0,0.0,78,0.00,,,0.00,VWS V14.00,2013-01-14 14:07:00,
2013-01-14 09:12:00,21.6,15.8,30.16,North,349,0.0,0.0,78,0.00,,,0.00,VWS V14.00,2013-01-14 14:12:00,
2013-01-14 09:18:00,21.7,15.9,30.16,North,349,0.0,0.0,78,0.00,,,0.00,VWS V14.00,2013-01-14 14:18:00,
2013-01-14 09:23:00,21.7,15.9,30.16,North,350,0.0,0.0,78,0.00,,,0.00,VWS V14.00,2013-01-14 14:23:00,
2013-01-14 09:29:00,21.7,15.9,30.16,North,349,0.0,0.0,78,0.00,,,0.00,VWS V14.00,2013-01-14 14:29:00,
2013-01-14 09:34:00,21.9,16.1,30.16,NNW,348,0.0,0.0,78,0.00,,,0.00,VWS V14.00,2013-01-14 14:34:00,
2013-01-14 09:39:00,21.9,16.1,30.16,North,350,0.0,0.0,78,0.00,,,0.00,VWS V14.00,2013-01-14 14:39:00,
2013-01-14 09:44:00,21.9,15.8,30.16,NNW,348,0.0,0.0,77,0.00,,,0.00,VWS V14.00,2013-01-14 14:44:00,
2013-01-14 09:50:00,21.9,15.8,30.16,NNW,348,0.0,0.0,77,0.00,,,0.00,VWS V14.00,2013-01-14 14:50:00,
2013-01-14 09:56:00,22.1,16.0,30.16,NNW,348,0.0,0.0,77,0.00,,,0.00,VWS V14.00,2013-01-14 14:56:00,
2013-01-14 10:01:00,22.1,16.0,30.16,North,349,0.0,0.0,77,0.00,,,0.00,VWS V14.00,2013-01-14 15:01:00,
2013-01-14 10:07:00,22.3,16.2,30.16,North,350,0.0,0.0,77,0.00,,,0.00,VWS V14.00,2013-01-14 15:07:00,
2013-01-14 10:12:00,22.5,16.4,30.16,North,350,0.0,0.0,77,0.00,,,0.00,VWS V14.00,2013-01-14 15:12:00,
2013-01-14 10:18:00,22.5,16.4,30.16,NNW,348,0.0,0.0,77,0.00,,,0.00,VWS V14.00,2013-01-14 15:18:00,
2013-01-14 10:23:00,22.6,16.2,30.16,North,349,0.0,0.0,76,0.00,,,0.00,VWS V14.00,2013-01-14 15:23:00,
2013-01-14 10:28:00,22.6,16.2,30.16,NNW,348,0.0,0.0,76,0.00,,,0.00,VWS V14.00,2013-01-14 15:28:00,
2013-01-14 10:34:00,22.6,16.2,30.16,North,350,0.0,0.0,76,0.00,,,0.00,VWS V14.00,2013-01-14 15:34:00,
2013-01-14 10:39:00,22.6,16.2,30.16,North,349,0.0,0.0,76,0.00,,,0.00,VWS V14.00,2013-01-14 15:39:00,
2013-01-14 10:44:00,22.6,16.2,30.16,North,353,0.0,0.0,76,0.00,,,0.00,VWS V14.00,2013-01-14 15:44:00,
2013-01-14 10:49:00,22.8,16.4,30.16,North,350,0.0,0.0,76,0.00,,,0.00,VWS V14.00,2013-01-14 15:49:00,
2013-01-14 10:54:00,22.8,16.1,30.16,North,350,0.0,0.0,75,0.00,,,0.00,VWS V14.00,2013-01-14 15:54:00,
2013-01-14 11:00:00,22.8,16.1,30.16,North,349,0.0,0.0,75,0.00,,,0.00,VWS V14.00,2013-01-14 16:00:00,
2013-01-14 11:06:00,22.8,16.1,30.16,NNW,348,0.0,0.0,75,0.00,,,0.00,VWS V14.00,2013-01-14 16:06:00,
2013-01-14 11:11:00,22.8,16.1,30.16,North,349,0.0,0.0,75,0.00,,,0.00,VWS V14.00,2013-01-14 16:11:00,
2013-01-14 11:17:00,22.8,16.1,30.16,North,350,0.0,0.0,75,0.00,,,0.00,VWS V14.00,2013-01-14 16:17:00,
2013-01-14 11:22:00,22.8,15.8,30.16,North,349,0.0,0.0,74,0.00,,,0.00,VWS V14.00,2013-01-14 16:22:00,
2013-01-14 11:28:00,22.8,15.8,30.13,North,349,0.0,0.0,74,0.00,,,0.00,VWS V14.00,2013-01-14 16:28:00,
2013-01-14 11:33:00,23.0,16.0,30.13,North,349,0.0,0.0,74,0.00,,,0.00,VWS V14.00,2013-01-14 16:33:00,
2013-01-14 11:39:00,23.0,16.0,30.13,North,349,0.0,0.0,74,0.00,,,0.00,VWS V14.00,2013-01-14 16:39:00,
2013-01-14 11:44:00,23.2,15.8,30.13,North,350,0.0,0.0,73,0.00,,,0.00,VWS V14.00,2013-01-14 16:44:00,
2013-01-14 11:49:00,23.2,15.8,30.13,North,350,0.0,0.0,73,0.00,,,0.00,VWS V14.00,2013-01-14 16:49:00,
2013-01-14 11:55:00,23.2,15.8,30.13,North,350,0.0,0.0,73,0.00,,,0.00,VWS V14.00,2013-01-14 16:55:00,
2013-01-14 12:00:00,23.2,15.8,30.13,North,349,0.0,0.0,73,0.00,,,0.00,VWS V14.00,2013-01-14 17:00:00,
2013-01-14 12:05:00,23.4,16.0,30.13,NNW,348,0.0,0.0,73,0.00,,,0.00,VWS V14.00,2013-01-14 17:05:00,
2013-01-14 12:10:00,23.4,16.0,30.13,North,349,0.0,0.0,73,0.00,,,0.00,VWS V14.00,2013-01-14 17:10:00,
2013-01-14 12:16:00,23.5,16.2,30.13,North,349,0.0,0.0,73,0.00,,,0.00,VWS V14.00,2013-01-14 17:16:00,
2013-01-14 12:21:00,23.5,16.2,30.13,NNW,348,0.0,0.0,73,0.00,,,0.00,VWS V14.00,2013-01-14 17:21:00,
2013-01-14 12:27:00,23.7,16.7,30.13,North,349,0.0,0.0,74,0.00,,,0.00,VWS V14.00,2013-01-14 17:27:00,
2013-01-14 12:33:00,23.9,16.5,30.13,North,350,0.0,0.0,73,0.00,,,0.00,VWS V14.00,2013-01-14 17:33:00,
2013-01-14 12:38:00,23.9,16.5,30.13,North,349,0.0,0.0,73,0.00,,,0.00,VWS V14.00,2013-01-14 17:38:00,
2013-01-14 12:44:00,24.1,16.7,30.13,North,349,0.0,0.0,73,0.00,,,0.00,VWS V14.00,2013-01-14 17:44:00,
2013-01-14 12:49:00,24.3,16.9,30.13,NNW,348,0.0,0.0,73,0.00,,,0.00,VWS V14.00,2013-01-14 17:49:00,
2013-01-14 12:54:00,24.6,17.2,30.13,North,349,0.0,0.0,73,0.00,,,0.00,VWS V14.00,2013-01-14 17:54:00,
2013-01-14 12:59:00,25.0,17.6,30.13,NNW,348,0.0,0.0,73,0.00,,,0.00,VWS V14.00,2013-01-14 17:59:00,
2013-01-14 13:05:00,25.5,18.1,30.13,NNW,348,0.0,0.0,73,0.00,,,0.00,VWS V14.00,2013-01-14 18:05:00,
2013-01-14 13:10:00,26.1,18.6,30.13,North,349,0.0,0.0,73,0.00,,,0.00,VWS V14.00,2013-01-14 18:10:00,
2013-01-14 13:16:00,26.4,19.0,30.13,North,349,0.0,0.0,73,0.00,,,0.00,VWS V14.00,2013-01-14 18:16:00,
2013-01-14 13:21:00,26.6,18.8,30.13,North,349,0.0,0.0,72,0.00,,,0.00,VWS V14.00,2013-01-14 18:21:00,
2013-01-14 13:27:00,26.6,18.8,30.13,North,349,0.0,0.0,72,0.00,,,0.00,VWS V14.00,2013-01-14 18:27:00,
2013-01-14 13:32:00,26.6,18.5,30.13,North,349,0.0,0.0,71,0.00,,,0.00,VWS V14.00,2013-01-14 18:32:00,
2013-01-14 13:38:00,26.4,18.3,30.13,North,349,0.0,0.0,71,0.00,,,0.00,VWS V14.00,2013-01-14 18:38:00,
2013-01-14 13:44:00,26.4,18.3,30.13,North,349,0.0,0.0,71,0.00,,,0.00,VWS V14.00,2013-01-14 18:44:00,
2013-01-14 13:49:00,26.4,18.0,30.13,NNW,348,0.0,0.0,70,0.00,,,0.00,VWS V14.00,2013-01-14 18:49:00,
2013-01-14 13:55:00,26.4,18.0,30.13,North,349,0.0,0.0,70,0.00,,,0.00,VWS V14.00,2013-01-14 18:55:00,
2013-01-14 14:00:00,26.4,17.6,30.13,NNW,348,0.0,0.0,69,0.00,,,0.00,VWS V14.00,2013-01-14 19:00:00,
2013-01-14 14:06:00,26.4,17.3,30.13,NNW,348,0.0,0.0,68,0.00,,,0.00,VWS V14.00,2013-01-14 19:06:00,
2013-01-14 14:11:00,26.4,17.3,30.13,North,349,0.0,0.0,68,0.00,,,0.00,VWS V14.00,2013-01-14 19:11:00,
2013-01-14 14:17:00,26.4,17.3,30.13,North,349,0.0,0.0,68,0.00,,,0.00,VWS V14.00,2013-01-14 19:17:00,
2013-01-14 14:23:00,26.4,17.3,30.13,North,349,0.0,0.0,68,0.00,,,0.00,VWS V14.00,2013-01-14 19:23:00,
2013-01-14 14:28:00,26.6,17.5,30.13,North,349,0.0,0.0,68,0.00,,,0.00,VWS V14.00,2013-01-14 19:28:00,
2013-01-14 14:34:00,26.6,17.1,30.13,North,349,0.0,0.0,67,0.00,,,0.00,VWS V14.00,2013-01-14 19:34:00,
2013-01-14 14:39:00,26.6,17.1,30.16,North,349,0.0,0.0,67,0.00,,,0.00,VWS V14.00,2013-01-14 19:39:00,
2013-01-14 14:45:00,26.8,17.3,30.16,North,349,0.0,0.0,67,0.00,,,0.00,VWS V14.00,2013-01-14 19:45:00,
2013-01-14 14:51:00,26.8,17.3,30.16,North,349,0.0,0.0,67,0.00,,,0.00,VWS V14.00,2013-01-14 19:51:00,
2013-01-14 14:57:00,27.0,17.5,30.16,North,349,0.0,0.0,67,0.00,,,0.00,VWS V14.00,2013-01-14 19:57:00,
2013-01-14 15:02:00,27.0,17.1,30.16,North,349,0.0,0.0,66,0.00,,,0.00,VWS V14.00,2013-01-14 20:02:00,
2013-01-14 15:08:00,26.8,17.0,30.16,North,349,0.0,0.0,66,0.00,,,0.00,VWS V14.00,2013-01-14 20:08:00,
2013-01-14 15:13:00,26.6,16.8,30.16,North,349,0.0,0.0,66,0.00,,,0.00,VWS V14.00,2013-01-14 20:13:00,
2013-01-14 15:19:00,26.4,16.3,30.16,North,350,0.0,0.0,65,0.00,,,0.00,VWS V14.00,2013-01-14 20:19:00,
2013-01-14 15:24:00,26.4,16.3,30.16,North,350,0.0,0.0,65,0.00,,,0.00,VWS V14.00,2013-01-14 20:24:00,
2013-01-14 15:30:00,26.4,16.3,30.16,North,349,0.0,0.0,65,0.00,,,0.00,VWS V14.00,2013-01-14 20:30:00,
2013-01-14 15:35:00,26.6,16.4,30.16,North,349,0.0,0.0,65,0.00,,,0.00,VWS V14.00,2013-01-14 20:35:00,
2013-01-14 15:41:00,26.6,16.4,30.16,North,349,0.0,0.0,65,0.00,,,0.00,VWS V14.00,2013-01-14 20:41:00,
2013-01-14 15:46:00,26.6,16.4,30.16,North,349,0.0,0.0,65,0.00,,,0.00,VWS V14.00,2013-01-14 20:46:00,
2013-01-14 15:51:00,26.8,16.6,30.16,North,349,0.0,0.0,65,0.00,,,0.00,VWS V14.00,2013-01-14 20:51:00,
2013-01-14 15:57:00,26.6,16.4,30.16,North,349,0.0,0.0,65,0.00,,,0.00,VWS V14.00,2013-01-14 20:57:00,
2013-01-14 16:02:00,26.4,16.3,30.16,North,349,0.0,0.0,65,0.00,,,0.00,VWS V14.00,2013-01-14 21:02:00,
2013-01-14 16:07:00,26.2,16.1,30.16,North,349,0.0,0.0,65,0.00,,,0.00,VWS V14.00,2013-01-14 21:07:00,
2013-01-14 16:12:00,26.4,16.3,30.19,North,349,0.0,0.0,65,0.00,,,0.00,VWS V14.00,2013-01-14 21:12:00,
2013-01-14 16:18:00,26.6,16.4,30.19,North,349,0.0,0.0,65,0.00,,,0.00,VWS V14.00,2013-01-14 21:18:00,
2013-01-14 16:23:00,26.6,16.4,30.19,North,349,0.0,0.0,65,0.00,,,0.00,VWS V14.00,2013-01-14 21:23:00,
2013-01-14 16:29:00,26.4,16.3,30.19,North,349,0.0,0.0,65,0.00,,,0.00,VWS V14.00,2013-01-14 21:29:00,
2013-01-14 16:34:00,26.2,15.7,30.19,North,349,0.0,0.0,64,0.00,,,0.00,VWS V14.00,2013-01-14 21:34:00,
2013-01-14 16:40:00,25.9,15.4,30.19,North,349,0.0,0.0,64,0.00,,,0.00,VWS V14.00,2013-01-14 21:40:00,
2013-01-14 16:45:00,25.5,14.7,30.19,North,349,0.0,0.0,63,0.00,,,0.00,VWS V14.00,2013-01-14 21:45:00,
2013-01-14 16:51:00,25.3,14.5,30.19,North,349,0.0,0.0,63,0.00,,,0.00,VWS V14.00,2013-01-14 21:51:00,
2013-01-14 16:57:00,25.2,14.4,30.19,North,349,0.0,0.0,63,0.00,,,0.00,VWS V14.00,2013-01-14 21:57:00,
2013-01-14 17:02:00,25.0,14.5,30.19,North,349,0.0,0.0,64,0.00,,,0.00,VWS V14.00,2013-01-14 22:02:00,
2013-01-14 17:08:00,25.0,14.5,30.19,North,349,0.0,0.0,64,0.00,,,0.00,VWS V14.00,2013-01-14 22:08:00,
2013-01-14 17:13:00,25.0,14.5,30.19,North,349,0.0,0.0,64,0.00,,,0.00,VWS V14.00,2013-01-14 22:13:00,
2013-01-14 17:19:00,25.0,14.9,30.19,NNW,348,0.0,0.0,65,0.00,,,0.00,VWS V14.00,2013-01-14 22:19:00,
2013-01-14 17:25:00,24.8,15.1,30.19,NNW,348,0.0,0.0,66,0.00,,,0.00,VWS V14.00,2013-01-14 22:25:00,
2013-01-14 17:30:00,24.6,14.9,30.19,NNW,348,0.0,0.0,66,0.00,,,0.00,VWS V14.00,2013-01-14 22:30:00,
2013-01-14 17:35:00,24.4,14.7,30.19,North,349,0.0,0.0,66,0.00,,,0.00,VWS V14.00,2013-01-14 22:35:00,
2013-01-14 17:40:00,24.3,14.6,30.19,NNW,348,0.0,0.0,66,0.00,,,0.00,VWS V14.00,2013-01-14 22:40:00,
2013-01-14 17:45:00,23.9,14.2,30.19,NNW,348,0.0,0.0,66,0.00,,,0.00,VWS V14.00,2013-01-14 22:45:00,
2013-01-14 17:51:00,23.7,14.0,30.19,North,350,0.0,0.0,66,0.00,,,0.00,VWS V14.00,2013-01-14 22:51:00,
2013-01-14 17:57:00,23.5,14.2,30.19,North,349,0.0,0.0,67,0.00,,,0.00,VWS V14.00,2013-01-14 22:57:00,
2013-01-14 18:03:00,23.4,14.0,30.19,North,349,0.0,0.0,67,0.00,,,0.00,VWS V14.00,2013-01-14 23:03:00,
2013-01-14 18:08:00,23.2,13.9,30.19,North,350,0.0,0.0,67,0.00,,,0.00,VWS V14.00,2013-01-14 23:08:00,
2013-01-14 18:13:00,23.0,14.0,30.19,North,349,0.0,0.0,68,0.00,,,0.00,VWS V14.00,2013-01-14 23:13:00,
2013-01-14 18:19:00,22.8,13.9,30.19,NNW,348,0.0,0.0,68,0.00,,,0.00,VWS V14.00,2013-01-14 23:19:00,
2013-01-14 18:25:00,22.6,14.0,30.19,North,349,0.0,0.0,69,0.00,,,0.00,VWS V14.00,2013-01-14 23:25:00,
2013-01-14 18:30:00,22.5,13.8,30.19,North,350,0.0,0.0,69,0.00,,,0.00,VWS V14.00,2013-01-14 23:30:00,
2013-01-14 18:36:00,22.3,14.0,30.19,North,349,0.0,0.0,70,0.00,,,0.00,VWS V14.00,2013-01-14 23:36:00,
2013-01-14 18:42:00,22.1,13.8,30.19,NNW,348,0.0,0.0,70,0.00,,,0.00,VWS V14.00,2013-01-14 23:42:00,
2013-01-14 18:47:00,21.9,13.6,30.19,North,350,0.0,0.0,70,0.00,,,0.00,VWS V14.00,2013-01-14 23:47:00,
2013-01-14 18:52:00,21.7,13.5,30.19,North,353,0.0,0.0,70,0.00,,,0.00,VWS V14.00,2013-01-14 23:52:00,
2013-01-14 18:57:00,21.6,13.6,30.19,North,353,0.0,0.0,71,0.00,,,0.00,VWS V14.00,2013-01-14 23:57:00,
2013-01-14 19:03:00,21.4,13.4,30.19,North,353,0.0,0.0,71,0.00,,,0.00,VWS V14.00,2013-01-15 00:03:00,
2013-01-14 19:08:00,21.2,13.6,30.19,North,349,0.0,0.0,72,0.00,,,0.00,VWS V14.00,2013-01-15 00:08:00,
2013-01-14 19:14:00,21.0,13.4,30.19,North,353,0.0,0.0,72,0.00,,,0.00,VWS V14.00,2013-01-15 00:14:00,
2013-01-14 19:20:00,20.7,13.1,30.19,North,353,0.0,0.0,72,0.00,,,0.00,VWS V14.00,2013-01-15 00:20:00,
2013-01-14 19:25:00,20.7,13.1,30.19,North,353,0.0,0.0,72,0.00,,,0.00,VWS V14.00,2013-01-15 00:25:00,
2013-01-14 19:31:00,20.3,13.0,30.19,NNW,346,0.0,0.0,73,0.00,,,0.00,VWS V14.00,2013-01-15 00:31:00,
2013-01-14 19:36:00,20.3,13.0,30.19,NNW,346,0.0,0.0,73,0.00,,,0.00,VWS V14.00,2013-01-15 00:36:00,
2013-01-14 19:42:00,20.1,13.2,30.19,NNW,346,0.0,0.0,74,0.00,,,0.00,VWS V14.00,2013-01-15 00:42:00,
2013-01-14 19:47:00,19.8,12.8,30.19,NNW,345,0.0,0.0,74,0.00,,,0.00,VWS V14.00,2013-01-15 00:47:00,
2013-01-14 19:53:00,19.6,12.6,30.19,NNW,346,0.0,0.0,74,0.00,,,0.00,VWS V14.00,2013-01-15 00:53:00,
2013-01-14 19:58:00,19.6,12.6,30.16,NNW,346,0.0,0.0,74,0.00,,,0.00,VWS V14.00,2013-01-15 00:58:00,
2013-01-14 20:03:00,19.2,12.6,30.16,NNW,345,0.0,0.0,75,0.00,,,0.00,VWS V14.00,2013-01-15 01:03:00,
2013-01-14 20:09:00,19.2,12.6,30.16,North,353,0.0,0.0,75,0.00,,,0.00,VWS V14.00,2013-01-15 01:09:00,
2013-01-14 20:14:00,18.9,12.6,30.16,NNW,345,0.0,0.0,76,0.00,,,0.00,VWS V14.00,2013-01-15 01:14:00,
2013-01-14 20:19:00,18.7,12.4,30.16,NNW,348,0.0,0.0,76,0.00,,,0.00,VWS V14.00,2013-01-15 01:19:00,
2013-01-14 20:25:00,18.5,12.2,30.16,NNW,348,0.0,0.0,76,0.00,,,0.00,VWS V14.00,2013-01-15 01:25:00,
2013-01-14 20:30:00,18.3,12.0,30.16,North,353,0.0,0.0,76,0.00,,,0.00,VWS V14.00,2013-01-15 01:30:00,
2013-01-14 20:36:00,18.1,12.2,30.16,North,353,0.0,0.0,77,0.00,,,0.00,VWS V14.00,2013-01-15 01:36:00,
2013-01-14 20:42:00,18.1,12.2,30.19,NNW,346,0.0,0.0,77,0.00,,,0.00,VWS V14.00,2013-01-15 01:42:00,
2013-01-14 20:48:00,17.8,12.1,30.19,NNW,346,0.0,0.0,78,0.00,,,0.00,VWS V14.00,2013-01-15 01:48:00,
2013-01-14 20:53:00,17.8,12.1,30.19,NNW,348,0.0,0.0,78,0.00,,,0.00,VWS V14.00,2013-01-15 01:53:00,
2013-01-14 20:58:00,17.6,11.9,30.19,North,353,0.0,0.0,78,0.00,,,0.00,VWS V14.00,2013-01-15 01:58:00,
2013-01-14 21:03:00,17.6,12.2,30.19,North,353,0.0,0.0,79,0.00,,,0.00,VWS V14.00,2013-01-15 02:03:00,
2013-01-14 21:08:00,17.4,12.0,30.19,North,353,0.0,0.0,79,0.00,,,0.00,VWS V14.00,2013-01-15 02:08:00,
2013-01-14 21:14:00,17.2,11.9,30.19,North,353,0.0,0.0,79,0.00,,,0.00,VWS V14.00,2013-01-15 02:14:00,
2013-01-14 21:19:00,17.1,11.7,30.19,North,353,0.0,0.0,79,0.00,,,0.00,VWS V14.00,2013-01-15 02:19:00,
2013-01-14 21:24:00,17.1,11.7,30.19,North,353,0.0,0.0,79,0.00,,,0.00,VWS V14.00,2013-01-15 02:24:00,
2013-01-14 21:29:00,17.1,11.7,30.16,North,353,0.0,0.0,79,0.00,,,0.00,VWS V14.00,2013-01-15 02:29:00,
2013-01-14 21:35:00,16.9,11.8,30.16,North,353,0.0,0.0,80,0.00,,,0.00,VWS V14.00,2013-01-15 02:35:00,
2013-01-14 21:40:00,16.9,11.8,30.16,North,353,0.0,0.0,80,0.00,,,0.00,VWS V14.00,2013-01-15 02:40:00,
2013-01-14 21:46:00,16.7,11.6,30.16,NNW,345,0.0,0.0,80,0.00,,,0.00,VWS V14.00,2013-01-15 02:46:00,
2013-01-14 21:52:00,16.7,11.6,30.16,NNW,345,0.0,0.0,80,0.00,,,0.00,VWS V14.00,2013-01-15 02:52:00,
2013-01-14 21:58:00,16.5,11.4,30.16,North,353,0.0,0.0,80,0.00,,,0.00,VWS V14.00,2013-01-15 02:58:00,
2013-01-14 22:03:00,16.5,11.7,30.16,North,353,0.0,0.0,81,0.00,,,0.00,VWS V14.00,2013-01-15 03:03:00,
2013-01-14 22:08:00,16.3,11.5,30.16,North,353,0.0,0.0,81,0.00,,,0.00,VWS V14.00,2013-01-15 03:08:00,
2013-01-14 22:13:00,16.2,11.4,30.16,North,353,0.0,0.0,81,0.00,,,0.00,VWS V14.00,2013-01-15 03:13:00,
2013-01-14 22:18:00,16.2,11.4,30.16,North,353,0.0,0.0,81,0.00,,,0.00,VWS V14.00,2013-01-15 03:18:00,
2013-01-14 22:23:00,16.0,11.2,30.16,North,353,0.0,0.0,81,0.00,,,0.00,VWS V14.00,2013-01-15 03:23:00,
2013-01-14 22:29:00,16.0,11.2,30.16,NNW,348,0.0,0.0,81,0.00,,,0.00,VWS V14.00,2013-01-15 03:29:00,
2013-01-14 22:34:00,16.0,11.2,30.16,North,353,0.0,0.0,81,0.00,,,0.00,VWS V14.00,2013-01-15 03:34:00,
2013-01-14 22:39:00,15.8,11.3,30.16,NNW,345,0.0,0.0,82,0.00,,,0.00,VWS V14.00,2013-01-15 03:39:00,
2013-01-14 22:45:00,15.8,11.3,30.16,NNW,345,0.0,0.0,82,0.00,,,0.00,VWS V14.00,2013-01-15 03:45:00,
2013-01-14 22:51:00,15.8,11.3,30.16,NNW,345,0.0,0.0,82,0.00,,,0.00,VWS V14.00,2013-01-15 03:51:00,
2013-01-14 22:56:00,15.4,10.9,30.16,North,350,0.0,0.0,82,0.00,,,0.00,VWS V14.00,2013-01-15 03:56:00,
2013-01-14 23:02:00,15.4,10.9,30.16,North,353,0.0,0.0,82,0.00,,,0.00,VWS V14.00,2013-01-15 04:02:00,
2013-01-14 23:08:00,15.4,11.2,30.16,NNW,348,0.0,0.0,83,0.00,,,0.00,VWS V14.00,2013-01-15 04:08:00,
2013-01-14 23:13:00,15.4,11.2,30.16,NNW,346,0.0,0.0,83,0.00,,,0.00,VWS V14.00,2013-01-15 04:13:00,
2013-01-14 23:18:00,15.4,11.2,30.16,NNW,346,0.0,0.0,83,0.00,,,0.00,VWS V14.00,2013-01-15 04:18:00,
2013-01-14 23:23:00,15.4,11.2,30.16,NNW,348,0.0,0.0,83,0.00,,,0.00,VWS V14.00,2013-01-15 04:23:00,
2013-01-14 23:29:00,15.4,11.2,30.16,North,350,0.0,0.0,83,0.00,,,0.00,VWS V14.00,2013-01-15 04:29:00,
2013-01-14 23:34:00,15.4,11.2,30.16,NNW,346,0.0,0.0,83,0.00,,,0.00,VWS V14.00,2013-01-15 04:34:00,
2013-01-14 23:40:00,15.4,11.2,30.16,North,349,0.0,0.0,83,0.00,,,0.00,VWS V14.00,2013-01-15 04:40:00,
2013-01-14 23:46:00,15.4,11.2,30.16,North,353,0.0,0.0,83,0.00,,,0.00,VWS V14.00,2013-01-15 04:46:00,
2013-01-14 23:51:00,15.4,11.5,30.16,North,353,0.0,0.0,84,0.00,,,0.00,VWS V14.00,2013-01-15 04:51:00,
2013-01-14 23:57:00,15.4,11.5,30.16,NNW,346,0.0,0.0,84,0.00,,,0.00,VWS V14.00,2013-01-15 04:57:00,